Ely, NV

11:48 PM PDT on April 24, 2017 (GMT -0700)
Ely

Weather History for KELY - April, 2013

Change the Weather History Date:

Wednesday, April 24, 2013

  Actual Average Record
Temperature  
Mean Temperature 40 °F 44 °F  
Max Temperature 58 °F 60 °F 77 °F (1977)
Min Temperature 22 °F 29 °F 4 °F (1964)
Degree Days  
Heating Degree Days 25 20  
Month to date heating degree days 564 560  
Since 1 July heating degree days 6544 6787  
Cooling Degree Days 0 0  
Month to date cooling degree days 0 0  
Year to date cooling degree days 0 0  
Moisture  
Dew Point 10 °F    
Average Humidity 39    
Maximum Humidity 62    
Minimum Humidity 15    
Precipitation  
Precipitation 0.00 in 0.03 in 1.31 in (2005)
Month to date precipitation 0.86 0.74  
Year to date precipitation 2.56 3.12  
Snow  
Snow 0.00 in 0.10 in 5.00 in (1971)
Month to date snowfall 6.5 4.3  
Since 1 July snowfall 65.0 47.5  
Snow Depth 0.00 in    
Sea Level Pressure  
Sea Level Pressure 30.07 in    
Wind  
Wind Speed 7 mph (NE)    
Max Wind Speed 18 mph    
Max Gust Speed 23 mph    
Visibility 10 miles    
Events      
T = Trace of Precipitation, MM = Missing Value Source: NWS Daily Summary

Daily Weather History Graph

Daily Weather History Graph

Search for Another Location

Airport or City:

Trip Planner

Search our weather history database for the weather conditions in past years. The results will help you decide how hot, cold, wet, or windy it might be!

Date:

Astronomy

Apr. 24, 2013 Rise Set
Actual Time 5:49 AM PDT 7:26 PM PDT
Civil Twilight 5:20 AM PDT 7:54 PM PDT
Nautical Twilight 4:46 AM PDT 8:29 PM PDT
Astronomical Twilight 4:10 AM PDT 9:05 PM PDT
Moon 6:34 PM PDT (4/24) 4:55 AM PDT (4/24)
Length of Visible Light 14h 33m
Length of Day
13h 36m
Waxing Gibbous, 98% of the Moon is Illuminated
Apr 24
Waxing Gibbous
Apr 25
Full
May 2
Last Quarter
May 9
New
May 17
First Quarter

Hourly Weather History & Observations

Time (PDT) Temp. Windchill Dew Point Humidity Pressure Visibility Wind Dir Wind Speed Gust Speed Precip Events Conditions
12:53 AM 25.0 °F 18.1 °F 10.0 °F 53% 30.06 in 10.0 mi SSE 5.8 mph - N/A   Clear
1:53 AM 23.0 °F 14.7 °F 10.0 °F 58% 30.06 in 10.0 mi South 6.9 mph - N/A   Clear
2:53 AM 24.8 °F 17.9 °F 10.4 °F 54% 30.11 in 10.0 mi SSE 5.8 mph - N/A   Clear
3:53 AM 25.0 °F 17.1 °F 12.0 °F 58% 30.06 in 10.0 mi SSE 6.9 mph - N/A   Mostly Cloudy
4:53 AM 24.1 °F 16.0 °F 10.0 °F 55% 30.08 in 10.0 mi South 6.9 mph - N/A   Clear
5:53 AM 21.9 °F 17.2 °F 10.9 °F 63% 30.11 in 10.0 mi South 3.5 mph - N/A   Partly Cloudy
6:53 AM 25.0 °F 14.8 °F 10.9 °F 55% 30.13 in 10.0 mi SSE 10.4 mph - N/A   Scattered Clouds
7:53 AM 36.0 °F 33.3 °F 9.0 °F 33% 30.12 in 10.0 mi ESE 3.5 mph - N/A   Mostly Cloudy
8:53 AM 43.0 °F 39.5 °F 7.0 °F 23% 30.13 in 10.0 mi NNE 5.8 mph - N/A   Clear
9:53 AM 48.0 °F - 8.1 °F 20% 30.10 in 10.0 mi NNE 9.2 mph - N/A   Clear
10:53 AM 51.1 °F - 8.1 °F 18% 30.13 in 10.0 mi North 10.4 mph 16.1 mph N/A   Clear
11:53 AM 53.1 °F - 10.0 °F 18% 30.10 in 10.0 mi NNW 11.5 mph - N/A   Clear
12:53 PM 53.1 °F - 9.0 °F 17% 30.10 in 10.0 mi Variable 3.5 mph - N/A   Clear
1:53 PM 55.0 °F - 10.0 °F 17% 30.09 in 10.0 mi Calm Calm - N/A   Clear
2:53 PM 57.9 °F - 10.9 °F 16% 30.04 in 10.0 mi North 9.2 mph 16.1 mph N/A   Clear
3:53 PM 57.0 °F - 10.9 °F 16% 30.03 in 10.0 mi NNE 11.5 mph - N/A   Clear
4:53 PM 57.0 °F - 10.0 °F 15% 30.01 in 10.0 mi North 8.1 mph 18.4 mph N/A   Clear
5:53 PM 55.0 °F - 9.0 °F 16% 30.02 in 10.0 mi North 15.0 mph 20.7 mph N/A   Clear
6:53 PM 52.0 °F - 9.0 °F 18% 30.02 in 10.0 mi NNW 11.5 mph - N/A   Clear
7:53 PM 48.0 °F - 10.9 °F 22% 30.00 in 10.0 mi NNE 10.4 mph - N/A   Clear
8:53 PM 41.0 °F 39.0 °F 10.0 °F 28% 30.03 in 10.0 mi WNW 3.5 mph - N/A   Clear
9:53 PM 42.1 °F 39.2 °F 9.0 °F 26% 30.02 in 10.0 mi NW 4.6 mph - N/A   Clear
10:53 PM 36.0 °F 33.3 °F 12.0 °F 37% 30.03 in 10.0 mi SSE 3.5 mph - N/A   Clear
11:53 PM 28.0 °F - 10.0 °F 47% 30.06 in 10.0 mi Calm Calm - N/A   Clear